User: anonymous   Login
Location: Ottawa
(45.4167°N, 75.7000°W)
Time: 17:15:35
(UTC-05:00)
Language:

Envisat - Orbit

View from above orbital plane
View from above orbital plane
View from above satellite
View from above satellite

Ground track
Ground track

The orbit data is extracted from the following two-line orbital elements,

1 27386U 02009A   18049.51198121  .00000003  00000-0  14476-4 0  9996
2 27386  98.2005  89.0721 0001323  83.7073 276.4272 14.37915589836476
Epoch (UTC): 18 February 2018 12:17:15
Eccentricity: 0.0001323
inclination: 98.2005°
perigee height: 764 km
apogee height: 766 km
right ascension of ascending node: 89.0721°
argument of perigee: 83.7073°
revolutions per day: 14.37915589
mean anomaly at epoch: 276.4272°
orbit number at epoch: 83647

The dashed part of the orbit path shows where the satellite is in the earth's shadow,  

DLR